User: anonymous   Login
Location: Unspecified
(0.0000°N, 0.0000°E)
Time: 09:22:51
(UTC+00:00)
Language:

LILACSAT-1 - Orbit

View from above orbital plane
View from above orbital plane
View from above satellite
View from above satellite

Ground track
Ground track

The orbit data is extracted from the following two-line orbital elements,

1 42725U 98067ME  18267.86875883 +.00045380 +00000-0 +30509-3 0  9997
2 42725 051.6340 207.9024 0002000 222.8017 137.2826 15.74704733076204
Epoch (UTC): 24 September 2018 20:51:00
Eccentricity: 0.0002000
inclination: 51.6340°
perigee height: 344 km
apogee height: 347 km
right ascension of ascending node: 207.9024°
argument of perigee: 222.8017°
revolutions per day: 15.74704733
mean anomaly at epoch: 137.2826°
orbit number at epoch: 7620

The dashed part of the orbit path shows where the satellite is in the earth's shadow,  

DLR